This is the latest recevied weather packets stored in our database for station/object N7CW. If no packets are shown the sender has not sent any weather packets the latest 10 day(s).
| Time | Temp. | Humidity | Pressure | Rain* | Wind** | Luminosity | Snow |
|---|---|---|---|---|---|---|---|
| 1777863353 | 17.78° C | 29% | 1014.2 hPa | 0 mm | - | 0 W/m² | - |
| 1777863050 | 17.78° C | 28% | 1014.6 hPa | 0 mm | - | 0 W/m² | - |
| 1777862747 | 17.78° C | 28% | 1014.4 hPa | 0 mm | - | 0 W/m² | - |
| 1777862444 | 17.78° C | 28% | 1014.1 hPa | 0 mm | - | 0 W/m² | - |
| 1777862141 | 17.78° C | 27% | 1014.2 hPa | 0 mm | - | 0 W/m² | - |
| 1777861836 | 17.78° C | 27% | 1014.4 hPa | 0 mm | - | 0 W/m² | - |
| 1777861532 | 18.33° C | 27% | 1014.1 hPa | 0 mm | - | 1 W/m² | - |
| 1777861229 | 18.33° C | 26% | 1014.2 hPa | 0 mm | - | 2 W/m² | - |
| 1777860927 | 18.33° C | 25% | 1014 hPa | 0 mm | - | 4 W/m² | - |
| 1777860623 | 18.33° C | 25% | 1014 hPa | 0 mm | - | 7 W/m² | - |
| 1777860320 | 18.89° C | 25% | 1013.9 hPa | 0 mm | - | 10 W/m² | - |
| 1777860017 | 18.89° C | 25% | 1013.8 hPa | 0 mm | - | 11 W/m² | - |
| 1777859713 | 18.89° C | 25% | 1014 hPa | 0 mm | - | 16 W/m² | - |
| 1777859409 | 19.44° C | 25% | 1013.5 hPa | 0 mm | - | 21 W/m² | - |
| 1777859105 | 19.44° C | 24% | 1014 hPa | 0 mm | - | 25 W/m² | - |
| 1777858803 | 19.44° C | 24% | 1013.9 hPa | 0 mm | - | 29 W/m² | - |
| 1777858501 | 20° C | 24% | 1013.9 hPa | 0 mm | - | 35 W/m² | - |
| 1777858196 | 20° C | 24% | 1013.9 hPa | 0 mm | - | 41 W/m² | - |
| 1777857895 | 20° C | 25% | 1014 hPa | 0 mm | - | 49 W/m² | - |
| 1777857592 | 20° C | 25% | 1013.5 hPa | 0 mm | - | 58 W/m² | - |
| 1777857288 | 20.56° C | 25% | 1013.9 hPa | 0 mm | - | 68 W/m² | - |
| 1777856984 | 20.56° C | 24% | 1013.8 hPa | 0 mm | - | 82 W/m² | - |
| 1777856681 | 20.56° C | 24% | 1013.8 hPa | 0 mm | - | 92 W/m² | - |
| 1777856377 | 20.56° C | 25% | 1013.9 hPa | 0 mm | - | 104 W/m² | - |
| 1777856073 | 20.56° C | 24% | 1013.8 hPa | 0 mm | - | 117 W/m² | - |
* Rain latest hour (hover to see other rain measurements)
** Current wind speed in m/s (hover to see current wind gust speed)